EZY476H EGBB-EGPE

Flight info

Callsign EZY476H
Flight time 1h 3m
Altitude 34000
Route LUVUM DCT TNT N57 POL UN601 RIBEL DCT ERGAB DCT FOYLE/N0434F350 DCT ERSON DCT NESDI DCT GUSSI
Aircraft A320/M-SDE3FGHIRWY/LB1

Departure

Time 2026-05-08 15:03
Airport Birmingham Airport (EGBB)

Arrival

Time 2026-05-08 16:06
Airport Inverness Airport (EGPE)
Time Latitude Longitude Altitude Speed Heading
2026-05-08 14:41 52.45357 -1.73637 326 ft 0 kts 146°
2026-05-08 14:54 52.45370 -1.73651 325 ft 2 kts 146°
2026-05-08 14:54 52.45384 -1.73667 326 ft 2 kts 146°
2026-05-08 14:54 52.45399 -1.73683 326 ft 3 kts 146°
2026-05-08 14:55 52.45413 -1.73699 327 ft 3 kts 146°
2026-05-08 14:55 52.45427 -1.73715 328 ft 2 kts 158°
2026-05-08 14:55 52.45441 -1.73717 329 ft 0 kts 202°
2026-05-08 14:57 52.45439 -1.73719 329 ft 3 kts 202°
2026-05-08 14:58 52.45397 -1.73771 325 ft 12 kts 231°
2026-05-08 14:58 52.45345 -1.73895 325 ft 13 kts 235°
2026-05-08 14:58 52.45310 -1.74029 329 ft 13 kts 280°
2026-05-08 14:58 52.45344 -1.74159 328 ft 13 kts 295°
2026-05-08 14:59 52.45383 -1.74288 327 ft 12 kts 297°
2026-05-08 14:59 52.45479 -1.74570 322 ft 20 kts 312°
2026-05-08 14:59 52.45609 -1.74724 324 ft 26 kts 327°
2026-05-08 15:00 52.45778 -1.74908 322 ft 31 kts 326°
2026-05-08 15:00 52.45960 -1.75113 321 ft 33 kts 325°
2026-05-08 15:00 52.46151 -1.75331 319 ft 34 kts 326°
2026-05-08 15:00 52.46355 -1.75554 316 ft 36 kts 326°
2026-05-08 15:01 52.46546 -1.75766 315 ft 20 kts 326°
2026-05-08 15:01 52.46628 -1.75868 314 ft 14 kts 305°
2026-05-08 15:01 52.46602 -1.75991 314 ft 12 kts 231°
2026-05-08 15:01 52.46560 -1.76082 315 ft 8 kts 231°
2026-05-08 15:02 52.46518 -1.76062 315 ft 10 kts 144°
2026-05-08 15:02 52.46278 -1.75792 318 ft 77 kts 146°
2026-05-08 15:02 52.45666 -1.75112 324 ft 133 kts 146°
2026-05-08 15:02 52.44817 -1.74164 681 ft 150 kts 145°
2026-05-08 15:03 52.43952 -1.73246 1528 ft 146 kts 148°
2026-05-08 15:03 52.43072 -1.72339 2120 ft 156 kts 148°
2026-05-08 15:03 52.42449 -1.71682 2445 ft 165 kts 147°
2026-05-08 15:03 52.41122 -1.70214 3060 ft 182 kts 142°
2026-05-08 15:04 52.40562 -1.69128 3361 ft 191 kts 116°
2026-05-08 15:04 52.40360 -1.66925 3824 ft 210 kts 84°
2026-05-08 15:04 52.40932 -1.63787 4762 ft 223 kts 68°
2026-05-08 15:04 52.41857 -1.61725 5536 ft 231 kts 42°
2026-05-08 15:05 52.42788 -1.60774 6074 ft 235 kts 25°
2026-05-08 15:05 52.44397 -1.60099 6814 ft 240 kts 13°
2026-05-08 15:05 52.46046 -1.59690 7481 ft 249 kts
2026-05-08 15:05 52.47859 -1.59790 7801 ft 273 kts 357°
2026-05-08 15:06 52.49820 -1.59975 8308 ft 289 kts 355°
2026-05-08 15:06 52.51804 -1.60611 9052 ft 294 kts 339°
2026-05-08 15:06 52.53690 -1.61925 9909 ft 295 kts 334°
2026-05-08 15:06 52.55593 -1.63312 10471 ft 309 kts 334°
2026-05-08 15:07 52.57636 -1.64792 10718 ft 332 kts 334°
2026-05-08 15:07 52.59787 -1.66343 11249 ft 342 kts 334°
2026-05-08 15:07 52.61988 -1.67919 11947 ft 347 kts 334°
2026-05-08 15:07 52.64213 -1.69510 12658 ft 351 kts 334°
2026-05-08 15:08 52.66460 -1.71119 13398 ft 354 kts 334°
2026-05-08 15:08 52.68739 -1.72730 14072 ft 359 kts 337°
2026-05-08 15:08 52.71161 -1.73827 14685 ft 365 kts 348°
2026-05-08 15:08 52.73712 -1.74108 15344 ft 371 kts
2026-05-08 15:09 52.76293 -1.73618 15962 ft 376 kts
2026-05-08 15:09 52.78895 -1.73011 16594 ft 379 kts
2026-05-08 15:09 52.81520 -1.72415 17207 ft 382 kts
2026-05-08 15:09 52.84166 -1.71825 17810 ft 386 kts
2026-05-08 15:10 52.86844 -1.71226 18393 ft 389 kts
2026-05-08 15:10 52.89539 -1.70622 18911 ft 392 kts
2026-05-08 15:10 52.92257 -1.70007 19431 ft 395 kts
2026-05-08 15:10 52.94990 -1.69385 19959 ft 398 kts
2026-05-08 15:11 52.97751 -1.68753 20486 ft 400 kts
2026-05-08 15:11 53.00517 -1.68119 21005 ft 403 kts
2026-05-08 15:11 53.03316 -1.67680 21476 ft 405 kts 358°
2026-05-08 15:11 53.06120 -1.68010 21965 ft 405 kts 348°
2026-05-08 15:12 53.08848 -1.69128 22454 ft 404 kts 338°
2026-05-08 15:12 53.11457 -1.70738 22930 ft 406 kts 336°
2026-05-08 15:12 53.14112 -1.72395 23414 ft 409 kts 336°
2026-05-08 15:12 53.16787 -1.74061 23859 ft 412 kts 336°
2026-05-08 15:13 53.19475 -1.75728 24267 ft 413 kts 336°
2026-05-08 15:13 53.22176 -1.77401 24687 ft 415 kts 336°
2026-05-08 15:13 53.24887 -1.79079 25122 ft 416 kts 336°
2026-05-08 15:13 53.27605 -1.80771 25522 ft 417 kts 336°
2026-05-08 15:14 53.30328 -1.82474 25936 ft 419 kts 335°
2026-05-08 15:14 53.33060 -1.84186 26334 ft 420 kts 335°
2026-05-08 15:14 53.35802 -1.85910 26716 ft 421 kts 335°
2026-05-08 15:14 53.38550 -1.87637 27111 ft 423 kts 335°
2026-05-08 15:15 53.41314 -1.89371 27506 ft 424 kts 335°
2026-05-08 15:15 53.44087 -1.91110 27884 ft 426 kts 335°
2026-05-08 15:15 53.46867 -1.92858 28266 ft 427 kts 335°
2026-05-08 15:15 53.49656 -1.94618 28637 ft 429 kts 335°
2026-05-08 15:16 53.52416 -1.96361 29000 ft 430 kts 335°
2026-05-08 15:16 53.55226 -1.98141 29332 ft 432 kts 335°
2026-05-08 15:16 53.58040 -1.99929 29686 ft 434 kts 334°
2026-05-08 15:16 53.60867 -2.01726 30005 ft 435 kts 334°
2026-05-08 15:17 53.63703 -2.03527 30297 ft 436 kts 334°
2026-05-08 15:17 53.66549 -2.05330 30582 ft 437 kts 334°
2026-05-08 15:17 53.69403 -2.07144 30874 ft 438 kts 334°
2026-05-08 15:17 53.72258 -2.08968 31135 ft 440 kts 334°
2026-05-08 15:18 53.75129 -2.10809 31383 ft 441 kts 333°
2026-05-08 15:18 53.77988 -2.12693 31724 ft 440 kts 333°
2026-05-08 15:18 53.80823 -2.14615 32098 ft 438 kts 332°
2026-05-08 15:18 53.83640 -2.16557 32504 ft 436 kts 332°
2026-05-08 15:19 53.86442 -2.18503 32906 ft 434 kts 331°
2026-05-08 15:19 53.89231 -2.20442 33293 ft 432 kts 331°
2026-05-08 15:19 53.92015 -2.22367 33676 ft 431 kts 331°
2026-05-08 15:19 53.94786 -2.24276 34024 ft 430 kts 331°
2026-05-08 15:20 54.00275 -2.28037 34100 ft 421 kts 331°
2026-05-08 15:20 54.05652 -2.31738 34103 ft 418 kts 331°
2026-05-08 15:21 54.11044 -2.35481 34100 ft 418 kts 330°
2026-05-08 15:21 54.16369 -2.39376 34099 ft 412 kts 324°
2026-05-08 15:22 54.21374 -2.44136 34103 ft 412 kts 324°
2026-05-08 15:22 54.26381 -2.48893 34115 ft 411 kts 324°
2026-05-08 15:23 54.31375 -2.53669 34104 ft 411 kts 324°
2026-05-08 15:23 54.36373 -2.58464 34102 ft 411 kts 324°
2026-05-08 15:24 54.41340 -2.63230 34099 ft 411 kts 324°
2026-05-08 15:24 54.46328 -2.68033 34109 ft 411 kts 323°
2026-05-08 15:25 54.51316 -2.72851 34108 ft 412 kts 323°
2026-05-08 15:25 54.56309 -2.77690 34098 ft 412 kts 323°
2026-05-08 15:26 54.61298 -2.82544 34095 ft 412 kts 323°
2026-05-08 15:26 54.66297 -2.87413 34088 ft 412 kts 323°
2026-05-08 15:27 54.71295 -2.92289 34085 ft 412 kts 323°
2026-05-08 15:27 54.76280 -2.97182 34106 ft 412 kts 322°
2026-05-08 15:28 54.81277 -3.02087 34105 ft 412 kts 322°
2026-05-08 15:28 54.86265 -3.07007 34102 ft 412 kts 322°
2026-05-08 15:29 54.91246 -3.11939 34097 ft 412 kts 322°
2026-05-08 15:29 54.96226 -3.16865 34095 ft 412 kts 322°
2026-05-08 15:30 55.01205 -3.21807 34112 ft 412 kts 322°
2026-05-08 15:30 55.06180 -3.26771 34103 ft 412 kts 322°
2026-05-08 15:31 55.11121 -3.31715 34118 ft 412 kts 321°
2026-05-08 15:31 55.16115 -3.36720 34099 ft 413 kts 321°
2026-05-08 15:32 55.21096 -3.41733 34088 ft 413 kts 321°
2026-05-08 15:32 55.26080 -3.46759 34104 ft 414 kts 321°
2026-05-08 15:33 55.31076 -3.51801 34101 ft 414 kts 321°
2026-05-08 15:33 55.36063 -3.56864 34093 ft 414 kts 321°
2026-05-08 15:34 55.41041 -3.61939 34097 ft 413 kts 321°
2026-05-08 15:34 55.45987 -3.66992 34093 ft 414 kts 321°
2026-05-08 15:35 55.50966 -3.72081 34123 ft 414 kts 321°
2026-05-08 15:35 55.55940 -3.77187 34109 ft 413 kts 320°
2026-05-08 15:36 55.60066 -3.81434 34104 ft 413 kts 320°
2026-05-08 15:36 55.65863 -3.87425 34102 ft 413 kts 320°
2026-05-08 15:37 55.70819 -3.92551 34120 ft 413 kts 320°
2026-05-08 15:37 55.75788 -3.97706 34127 ft 413 kts 320°
2026-05-08 15:38 55.80751 -4.02877 34109 ft 414 kts 320°
2026-05-08 15:38 55.85720 -4.08057 34103 ft 413 kts 320°
2026-05-08 15:39 55.90686 -4.13259 33833 ft 414 kts 320°
2026-05-08 15:39 55.93153 -4.15849 33341 ft 410 kts 320°
2026-05-08 15:39 55.95595 -4.18418 32825 ft 405 kts 320°
2026-05-08 15:40 55.98018 -4.20971 32314 ft 402 kts 320°
2026-05-08 15:40 56.00422 -4.23504 31812 ft 399 kts 320°
2026-05-08 15:40 56.02802 -4.26013 31306 ft 396 kts 319°
2026-05-08 15:40 56.05169 -4.28515 30814 ft 394 kts 319°
2026-05-08 15:41 56.07530 -4.31024 30327 ft 394 kts 319°
2026-05-08 15:41 56.09882 -4.33537 29786 ft 394 kts 320°
2026-05-08 15:41 56.12373 -4.35693 29300 ft 404 kts 331°
2026-05-08 15:41 56.15098 -4.36981 28794 ft 414 kts 343°
2026-05-08 15:42 56.17995 -4.37279 28270 ft 422 kts 355°
2026-05-08 15:42 56.20931 -4.36676 27754 ft 424 kts
2026-05-08 15:42 56.23853 -4.35966 27265 ft 421 kts
2026-05-08 15:42 56.26755 -4.35274 26740 ft 420 kts
2026-05-08 15:43 56.29647 -4.34593 26241 ft 417 kts
2026-05-08 15:43 56.32511 -4.33917 25756 ft 413 kts
2026-05-08 15:43 56.35356 -4.33245 25278 ft 411 kts
2026-05-08 15:43 56.38182 -4.32577 24782 ft 408 kts
2026-05-08 15:44 56.40997 -4.31909 24286 ft 406 kts
2026-05-08 15:44 56.43791 -4.31245 23843 ft 404 kts
2026-05-08 15:44 56.46566 -4.30583 23347 ft 401 kts
2026-05-08 15:44 56.49320 -4.29927 22904 ft 397 kts
2026-05-08 15:45 56.52010 -4.29283 22465 ft 394 kts
2026-05-08 15:45 56.54749 -4.28627 22013 ft 389 kts
2026-05-08 15:45 56.57423 -4.27986 21572 ft 386 kts
2026-05-08 15:45 56.60072 -4.27351 21137 ft 383 kts
2026-05-08 15:46 56.62700 -4.26719 20699 ft 380 kts
2026-05-08 15:46 56.65315 -4.26089 20270 ft 377 kts
2026-05-08 15:46 56.67912 -4.25468 19840 ft 375 kts
2026-05-08 15:46 56.70463 -4.24858 19422 ft 373 kts
2026-05-08 15:47 56.73043 -4.24234 19002 ft 372 kts
2026-05-08 15:47 56.75607 -4.23614 18581 ft 370 kts
2026-05-08 15:47 56.78151 -4.22995 18153 ft 369 kts
2026-05-08 15:47 56.80692 -4.22376 17714 ft 366 kts
2026-05-08 15:48 56.84859 -4.21365 17034 ft 361 kts
2026-05-08 15:48 56.87339 -4.20761 16634 ft 358 kts
2026-05-08 15:48 56.89810 -4.20157 16232 ft 356 kts
2026-05-08 15:49 56.92260 -4.19559 15844 ft 354 kts
2026-05-08 15:49 56.94695 -4.18965 15442 ft 352 kts
2026-05-08 15:49 56.97121 -4.18372 15048 ft 351 kts
2026-05-08 15:49 56.99544 -4.17780 14651 ft 350 kts
2026-05-08 15:50 57.01955 -4.17192 14260 ft 349 kts
2026-05-08 15:50 57.04362 -4.16605 13868 ft 348 kts
2026-05-08 15:50 57.06757 -4.16020 13421 ft 347 kts
2026-05-08 15:50 57.09142 -4.15432 13020 ft 345 kts
2026-05-08 15:51 57.11513 -4.14844 12604 ft 343 kts
2026-05-08 15:51 57.13876 -4.14258 12189 ft 341 kts
2026-05-08 15:51 57.16221 -4.13678 11778 ft 339 kts
2026-05-08 15:51 57.18551 -4.13103 11380 ft 336 kts
2026-05-08 15:52 57.20837 -4.12564 11228 ft 326 kts
2026-05-08 15:52 57.23063 -4.12037 10918 ft 320 kts
2026-05-08 15:52 57.25234 -4.11527 10568 ft 318 kts
2026-05-08 15:52 57.27400 -4.11008 10393 ft 309 kts
2026-05-08 15:53 57.29395 -4.09693 10217 ft 305 kts 31°
2026-05-08 15:53 57.31002 -4.07166 9908 ft 303 kts 44°
2026-05-08 15:53 57.32482 -4.04375 9571 ft 301 kts 45°
2026-05-08 15:53 57.33928 -4.01595 9226 ft 299 kts 45°
2026-05-08 15:54 57.35363 -3.98822 8840 ft 297 kts 45°
2026-05-08 15:54 57.36792 -3.96058 8468 ft 296 kts 45°
2026-05-08 15:54 57.38209 -3.93313 8122 ft 294 kts 45°
2026-05-08 15:54 57.39623 -3.90573 7736 ft 293 kts 45°
2026-05-08 15:55 57.41024 -3.87854 7368 ft 291 kts 45°
2026-05-08 15:55 57.43805 -3.82463 6628 ft 288 kts 45°
2026-05-08 15:55 57.45157 -3.79837 6448 ft 279 kts 45°
2026-05-08 15:56 57.46475 -3.77281 6298 ft 268 kts 45°
2026-05-08 15:56 57.47739 -3.74822 6171 ft 258 kts 45°
2026-05-08 15:56 57.48949 -3.72447 6023 ft 249 kts 44°
2026-05-08 15:56 57.50123 -3.70120 5743 ft 246 kts 44°
2026-05-08 15:57 57.51281 -3.67792 5455 ft 244 kts 46°
2026-05-08 15:57 57.52420 -3.65480 5167 ft 240 kts 45°
2026-05-08 15:57 57.53538 -3.63175 4856 ft 240 kts 45°
2026-05-08 15:57 57.54640 -3.60866 4549 ft 238 kts 45°
2026-05-08 15:58 57.55737 -3.58571 4262 ft 236 kts 43°
2026-05-08 15:58 57.57044 -3.56873 3937 ft 226 kts 11°
2026-05-08 15:58 57.58561 -3.56608 3654 ft 217 kts 352°
2026-05-08 15:58 57.60064 -3.56834 3379 ft 216 kts 350°
2026-05-08 15:59 57.61537 -3.57131 3264 ft 216 kts 349°
2026-05-08 15:59 57.63032 -3.57440 3133 ft 216 kts 349°
2026-05-08 15:59 57.64469 -3.58104 3000 ft 210 kts 325°
2026-05-08 15:59 57.65486 -3.59972 2866 ft 205 kts 303°
2026-05-08 16:00 57.66266 -3.62204 2760 ft 205 kts 300°
2026-05-08 16:00 57.67010 -3.64476 2626 ft 204 kts 298°
2026-05-08 16:00 57.67502 -3.66935 2492 ft 202 kts 282°
2026-05-08 16:00 57.67763 -3.69515 2362 ft 202 kts 279°
2026-05-08 16:01 57.67957 -3.72116 2226 ft 203 kts 272°
2026-05-08 16:01 57.67726 -3.74702 2112 ft 204 kts 249°
2026-05-08 16:01 57.66965 -3.76946 2012 ft 207 kts 232°
2026-05-08 16:01 57.66026 -3.78999 1986 ft 206 kts 232°
2026-05-08 16:02 57.65128 -3.80965 2017 ft 193 kts 233°
2026-05-08 16:02 57.64274 -3.82841 2020 ft 187 kts 233°
2026-05-08 16:02 57.63433 -3.84689 2027 ft 187 kts 232°
2026-05-08 16:02 57.62599 -3.86520 2030 ft 185 kts 232°
2026-05-08 16:03 57.61779 -3.88314 2047 ft 174 kts 233°
2026-05-08 16:03 57.61022 -3.89967 1929 ft 162 kts 233°
2026-05-08 16:03 57.60317 -3.91510 1748 ft 151 kts 234°
2026-05-08 16:03 57.59662 -3.92943 1546 ft 143 kts 234°
2026-05-08 16:04 57.59033 -3.94318 1391 ft 135 kts 234°
2026-05-08 16:04 57.58427 -3.95645 1194 ft 133 kts 236°
2026-05-08 16:04 57.57832 -3.96944 1017 ft 131 kts 237°
2026-05-08 16:04 57.57240 -3.98237 831 ft 131 kts 235°
2026-05-08 16:05 57.56645 -3.99545 640 ft 132 kts 236°
2026-05-08 16:05 57.56045 -4.00843 422 ft 131 kts 232°
2026-05-08 16:05 57.55451 -4.02132 260 ft 132 kts 231°
2026-05-08 16:05 57.54858 -4.03416 92 ft 129 kts 236°
2026-05-08 16:06 57.54330 -4.04580 37 ft 92 kts 232°
2026-05-08 16:06 57.54097 -4.05081 33 ft 27 kts 229°
2026-05-08 16:06 57.53982 -4.05345 34 ft 26 kts 229°
2026-05-08 16:06 57.53870 -4.05589 35 ft 25 kts 230°
2026-05-08 16:07 57.53758 -4.05835 33 ft 25 kts 230°
2026-05-08 16:07 57.53719 -4.05993 32 ft 12 kts 293°
2026-05-08 16:07 57.53764 -4.06130 33 ft 13 kts 305°
2026-05-08 16:07 57.53846 -4.06184 34 ft 14 kts
2026-05-08 16:08 57.53948 -4.06170 34 ft 13 kts
2026-05-08 16:08 57.53983 -4.06185 33 ft 3 kts 323°
2026-05-08 16:08 57.53987 -4.06214 35 ft 2 kts 277°
2026-05-08 16:08 57.53987 -4.06250 35 ft 0 kts 273°